User: anonymous   Login
Location: Campillo
(40.8621°N, 4.2488°W)
Time: 04:28:53
(UTC+00:00)
Language:

Cosmos 1437 Rocket - Orbit

View from above orbital plane
View from above orbital plane
View from above satellite
View from above satellite

Ground track
Ground track

The orbit data is extracted from the following two-line orbital elements,

1 13771U 83003B   21210.10430437  .00000824  00000-0  46533-4 0  9990
2 13771  81.1630  70.4371 0048326  60.7640 299.8405 15.10948860100648
Epoch (UTC): 29 July 2021 02:30:11
Eccentricity: 0.0048326
inclination: 81.1630°
perigee height: 500 km
apogee height: 567 km
right ascension of ascending node: 70.4371°
argument of perigee: 60.7640°
revolutions per day: 15.10948860
mean anomaly at epoch: 299.8405°
orbit number at epoch: 10064

The dashed part of the orbit path shows where the satellite is in the earth's shadow,  

DLR